Regional Weather Roundup
Issued by NWS Boston, MA

Home | Current Version | Previous Version | Text Only | Print | Product List | Glossary On
Versions: 1 2 3 4 5 6 7 8 9 10 11 12 13 14 15 16 17 18 19 20 21 22 23 24 25 26 27 28 29 30 31 32 33 34 35 36 37 38 39 40 41 42
000
ASUS41 KBOX 221210
RWRBOX

REGIONAL WEATHER ROUNDUP
NATIONAL WEATHER SERVICE TAUNTON MA
800 AM EDT WED OCT 22 2014

NOTE:  "FAIR" INDICATES FEW OR NO CLOUDS BELOW 12,000 FEET WITH NO
SIGNIFICANT WEATHER AND/OR OBSTRUCTIONS TO VISIBILITY.  THE FOLLOWING
OBSERVATION LOCATIONS DO NOT REPORT PRESENT WEATHER...PROVINCETOWN...
SMITHFIELD...BLOCK ISLAND...KEENE...AND OXFORD.

MAZALL-221300-
EASTERN MASSACHUSETTS

CITY           SKY/WX    TMP DP  RH WIND       PRES   REMARKS
BOSTON         CLOUDY    56  54  93 NE22G33   29.99R
6HR MIN TEMP:  51; 6HR MAX TEMP:  56; 6HR PCP:  0.06;

BEVERLY        CLOUDY    55  52  89 NE16G32   30.01R
LAWRENCE       LGT RAIN  53  51  93 NE20G36   30.05R
BEDFORD        RAIN      53  52  96 NE15G28   30.00R FOG
BLUE HILL        N/A     54  54 100 NE20G36   29.96S
NORWOOD        LGT RAIN  54  53  97 NE8       29.97S FOG
MARSHFIELD     NOT AVBL
PLYMOUTH       CLOUDY    57  55  93 NE14G24   29.95R
TAUNTON        CLOUDY    56  54  93 VRB3      29.95R
NEW BEDFORD    CLOUDY    54  53  97 N7        29.93R
$$

MAZALL-221300-
CAPE COD AND THE ISLANDS

CITY           SKY/WX    TMP DP  RH WIND       PRES   REMARKS
FALMOUTH       CLOUDY    57  55  94 NE20G28   29.92R FOG
HYANNIS        CLOUDY    58  56  93 NE14      29.90S
CHATHAM        CLOUDY    57  56  96 NE13G24   29.91F
PROVINCETOWN   CLOUDY    57  54  88 NE18G25   29.95S
NANTUCKET      CLOUDY    58  56  93 NE16      29.89R FOG
MARTHAS VNYRD  CLOUDY    59  57  93 NE13      29.91R
$$

MAZALL-221300-
CENTRAL AND WESTERN MASSACHUSETTS

CITY           SKY/WX    TMP DP  RH WIND       PRES   REMARKS
WORCESTER      LGT RAIN  47  47 100 NE14G23   29.99S FOG
6HR MIN TEMP:  47; 6HR MAX TEMP:  48; 6HR PCP:  0.03;

FITCHBURG      LGT RAIN  51  47  86 N9G21     30.05R FOG
ORANGE         LGT RAIN  49  47  93 N12       30.04R
SPRINGFIELD    CLOUDY    52  48  87 NE10      30.00R
WESTFIELD      CLOUDY    52  46  80 N12       30.00S
NORTH ADAMS    CLOUDY    51  45  79 E13G20    30.04R
PITTSFIELD     CLOUDY    48  45  89 E9        30.02R
$$

RIZALL-221300-
RHODE ISLAND

CITY           SKY/WX    TMP DP  RH WIND       PRES   REMARKS
PROVIDENCE     DRIZZLE   53  50  89 N14       29.96R
6HR MIN TEMP:  52; 6HR MAX TEMP:  55; 6HR PCP: TRACE;

NEWPORT        CLOUDY    54  51  90 N14       29.93R
BLOCK ISLAND   CLOUDY    55  52  88 NE15G23   29.92R
SMITHFIELD     CLOUDY    50  43  76 N13       29.96S
WESTERLY       CLOUDY    54  51  90 N10       29.94R
$$

CTZALL-221300-
CONNECTICUT

CITY           SKY/WX    TMP DP  RH WIND       PRES   REMARKS
BRADLEY INTL   CLOUDY    53  47  79 N13       29.98R
6HR MIN TEMP:  53; 6HR MAX TEMP:  54;

HARTFORD       CLOUDY    53  48  83 N14G21    29.98R
BRIDGEPORT     CLOUDY    55  50  83 NE18G24   29.93R
DANBURY        CLOUDY    53  50  90 NE7       29.97R
GROTON         CLOUDY    54  51  90 N14       29.92R
NEW HAVEN      CLOUDY    55  49  80 N16G25    29.93S
CHESTER        NOT AVBL
MERIDEN        CLOUDY    53  47  79 N13       29.96R
WILLIMANTIC    CLOUDY    53  48  83 N8        29.96S
$$

MEZ002-015-021-024-NHZ003-005-008-011-012-014-VTZ005-008-221300-
NORTHERN NEW ENGLAND

CITY           SKY/WX    TMP DP  RH WIND       PRES   REMARKS
PORTLAND ME    LGT RAIN  49  46  90 NE14G22   30.11S FOG
6HR MIN TEMP:  50; 6HR MAX TEMP:  51; 6HR PCP:  0.28;

BANGOR ME      CLOUDY    45  43  93 N12       30.22R
CONCORD NH     CLOUDY    47  46  97 NE9       30.09R
MANCHESTER NH  CLOUDY    50  46  86 N13G21    30.06R FOG
NASHUA NH      LGT RAIN  52  48  87 NE8G20    30.06R FOG
PORTSMOUTH NH  DRIZZLE   51  49  91 NE15G24   30.05S FOG
JAFFREY NH     LGT RAIN  46  45  96 MISG      30.06R FOG
KEENE NH       CLOUDY    50  39  66 N12       30.07R
BURLINGTON VT  MOCLDY    47  44  90 N7        30.17R
MT. WASHINGTON FOG       30  30 100 E55G66      N/A  VSB 0   WCI  11
$$

NYZ052-076-221300-
EASTERN NEW YORK

CITY           SKY/WX    TMP DP  RH WIND       PRES   REMARKS
ALBANY         CLOUDY    50  45  83 N12       30.07R
6HR MIN TEMP:  50; 6HR MAX TEMP:  50;

NEW YORK CITY  LGT RAIN  55  52  89 N16       29.92R
6HR MIN TEMP:  55; 6HR MAX TEMP:  59; 6HR PCP:  0.35;

$$

ANZALL-221300-
MARINE OBSERVATIONS

STATION/POSITION TIME  TEMP    WIND        PRES    VSBY  WAVE
                       AIR SEA DIR/SP/G                  HT/PER
                 (UTC) (F)     (DEG/KT/KT) (MB)    (MI)  (FT/S)
BOSTON BUOY      NOT AVBL
BUZZARDS BAY     NOT AVBL
NANTUCKET SOUND  NOT AVBL
MASS BAY-STELLWA NOT AVBL
ISLE OF SHOALS   NOT AVBL
S OF BLOCK IS    NOT AVBL
$$

......................KEY.........................
  SKY/WX - SKY CONDITION/PRESENT WEATHER
  TMP    - TEMPERATURE IN FAHRENHEIT
  DWPT   - DEWPOINT IN FAHRENHEIT
  RH     - RELATIVE HUMIDITY IN PERCENT
  WIND   - DIRECTION AND SPEED IN MPH
  PRES   - MEAN SEA LEVEL PRESSURE IN INCHES OF HG
  WCI    - WIND CHILL INDEX
  VSB    - VISIBILITY IN MILES
  HX     - HEAT INDEX
  TC     - TEMPERATURE IN CELSIUS
  VRB    - VARIABLE WIND DIRECTION
  N/A    - NOT AVAILABLE



USA.gov is the U.S. government's official web portal to all federal, state and local government web resources and services.